Time,TemperatureF,DewpointF,PressureIn,WindDirection,WindDirectionDegrees,WindSpeedMPH,WindSpeedGustMPH,Humidity,HourlyPrecipIn,Conditions,Clouds,dailyrainin,SolarRadiationWatts/m^2,SoftwareType,DateUTC
2013-08-30 00:00:00,65.2,59.7,29.99,ENE,74,5.3,5.6,83,0.00,,---,0.45,0.76,VWS V14.01,2013-08-30 07:00:00,
2013-08-30 01:00:00,65.3,59.0,30.00,ENE,76,8.1,8.1,80,0.00,,---,0.45,0.60,VWS V14.01,2013-08-30 08:00:00,
2013-08-30 01:32:00,64.4,57.4,30.02,ENE,63,4.7,8.1,78,0.00,,---,0.00,0.38,VWS V14.01,2013-08-30 08:32:00,
2013-08-30 01:37:00,64.4,57.4,30.03,NE,52,6.0,7.2,78,0.00,,---,0.00,0.31,VWS V14.01,2013-08-30 08:37:00,
2013-08-30 01:42:00,64.4,57.2,30.03,ENE,66,4.5,4.5,77,0.00,,---,0.00,0.00,VWS V14.01,2013-08-30 08:42:00,
2013-08-30 01:47:00,64.2,57.1,30.03,ENE,71,5.1,5.1,78,0.00,,---,0.00,1.22,VWS V14.01,2013-08-30 08:47:00,
2013-08-30 01:52:00,64.2,57.1,30.04,ENE,70,6.3,6.3,78,0.00,,---,0.00,0.00,VWS V14.01,2013-08-30 08:52:00,
2013-08-30 01:57:00,64.2,57.1,30.04,East,81,9.0,9.0,78,0.00,,---,0.00,1.37,VWS V14.01,2013-08-30 08:57:00,
2013-08-30 02:02:00,64.2,57.1,30.04,East,88,5.8,5.8,78,0.00,,---,0.00,0.00,VWS V14.01,2013-08-30 09:02:00,
2013-08-30 02:07:00,64.2,57.1,30.04,ENE,68,4.0,9.6,78,0.00,,---,0.00,0.00,VWS V14.01,2013-08-30 09:07:00,
2013-08-30 02:12:00,64.2,57.1,30.04,East,79,6.0,6.0,78,0.00,,---,0.00,0.00,VWS V14.01,2013-08-30 09:12:00,
2013-08-30 02:17:00,64.2,57.1,30.04,ENE,70,6.7,6.7,78,0.00,,---,0.00,0.00,VWS V14.01,2013-08-30 09:17:00,
2013-08-30 02:22:00,64.0,57.0,30.04,ENE,63,4.5,4.7,78,0.00,,---,0.00,0.00,VWS V14.01,2013-08-30 09:22:00,
2013-08-30 02:27:00,64.0,57.0,30.04,ENE,62,4.9,4.9,78,0.00,,---,0.00,0.00,VWS V14.01,2013-08-30 09:27:00,
2013-08-30 02:32:00,64.0,57.0,30.04,NNE,20,3.8,3.8,78,0.00,,---,0.00,2.06,VWS V14.01,2013-08-30 09:32:00,
2013-08-30 02:37:00,64.0,57.0,30.04,ENE,60,5.4,5.4,78,0.00,,---,0.00,0.00,VWS V14.01,2013-08-30 09:37:00,
2013-08-30 02:42:00,64.0,57.0,30.05,ENE,58,4.9,4.9,78,0.00,,---,0.00,0.00,VWS V14.01,2013-08-30 09:42:00,
2013-08-30 02:47:00,64.0,57.1,30.04,ENE,57,6.9,6.9,78,0.00,,---,0.00,1.45,VWS V14.01,2013-08-30 09:47:00,
2013-08-30 02:52:00,63.9,57.0,30.05,North,4,3.1,7.2,78,0.00,,---,0.00,0.99,VWS V14.01,2013-08-30 09:52:00,
2013-08-30 02:57:00,63.9,57.0,30.05,East,99,4.0,5.1,78,0.00,,---,0.00,0.00,VWS V14.01,2013-08-30 09:57:00,
2013-08-30 03:02:00,63.9,57.0,30.05,ENE,73,7.2,7.2,78,0.00,,---,0.00,2.52,VWS V14.01,2013-08-30 10:02:00,
2013-08-30 03:07:00,63.7,56.8,30.05,ENE,58,4.9,4.9,78,0.00,,---,0.00,0.00,VWS V14.01,2013-08-30 10:07:00,
2013-08-30 03:12:00,63.7,56.9,30.05,East,80,3.6,3.6,79,0.00,,---,0.00,0.00,VWS V14.01,2013-08-30 10:12:00,
2013-08-30 03:17:00,63.5,56.7,30.05,ENE,58,6.3,6.3,78,0.00,,---,0.00,3.36,VWS V14.01,2013-08-30 10:17:00,
2013-08-30 03:22:00,63.5,56.6,30.05,ENE,74,3.8,3.8,78,0.00,,---,0.00,0.00,VWS V14.01,2013-08-30 10:22:00,
2013-08-30 03:27:00,63.5,56.5,30.05,ENE,66,5.6,5.6,78,0.00,,---,0.00,0.00,VWS V14.01,2013-08-30 10:27:00,
2013-08-30 03:32:00,63.7,56.5,30.05,ENE,71,4.7,4.7,77,0.00,,---,0.00,0.00,VWS V14.01,2013-08-30 10:32:00,
2013-08-30 03:37:00,63.5,56.3,30.05,ENE,61,6.5,6.5,77,0.00,,---,0.00,0.00,VWS V14.01,2013-08-30 10:37:00,
2013-08-30 03:42:00,63.5,56.3,30.05,ENE,76,4.0,4.0,78,0.00,,---,0.00,0.08,VWS V14.01,2013-08-30 10:42:00,
2013-08-30 03:47:00,63.5,56.3,30.05,ENE,62,5.6,6.9,77,0.00,,---,0.00,0.46,VWS V14.01,2013-08-30 10:47:00,
2013-08-30 03:52:00,63.7,56.4,30.06,ENE,74,4.3,4.3,77,0.00,,---,0.00,0.00,VWS V14.01,2013-08-30 10:52:00,
2013-08-30 03:57:00,63.7,56.4,30.05,NE,40,2.9,4.7,77,0.00,,---,0.00,0.00,VWS V14.01,2013-08-30 10:57:00,
2013-08-30 04:02:00,63.5,56.3,30.05,ENE,67,6.3,6.3,77,0.00,,---,0.00,0.00,VWS V14.01,2013-08-30 11:02:00,
2013-08-30 04:07:00,63.5,56.3,30.06,ENE,73,5.1,5.1,77,0.00,,---,0.00,0.00,VWS V14.01,2013-08-30 11:07:00,
2013-08-30 04:09:00,63.3,56.2,30.06,ENE,71,3.8,3.8,78,0.00,,---,0.00,0.00,VWS V14.01,2013-08-30 11:09:00,
2013-08-30 04:12:00,63.3,56.2,30.06,ENE,71,3.8,3.8,78,0.00,,---,0.00,0.00,VWS V14.01,2013-08-30 11:12:00,
2013-08-30 04:17:00,63.3,56.2,30.06,ENE,71,3.8,3.8,78,0.00,,---,0.00,0.00,VWS V14.01,2013-08-30 11:17:00,
2013-08-30 04:22:00,63.3,56.2,30.06,ENE,71,3.8,3.8,78,0.00,,---,0.00,0.00,VWS V14.01,2013-08-30 11:22:00,
2013-08-30 04:27:00,63.3,56.2,30.06,ENE,71,3.8,3.8,78,0.00,,---,0.00,0.00,VWS V14.01,2013-08-30 11:27:00,
2013-08-30 04:32:00,63.3,56.2,30.06,ENE,71,3.8,3.8,78,0.00,,---,0.00,0.00,VWS V14.01,2013-08-30 11:32:00,
2013-08-30 04:37:00,63.3,56.2,30.06,ENE,71,3.8,3.8,78,0.00,,---,0.00,0.00,VWS V14.01,2013-08-30 11:37:00,
2013-08-30 04:42:00,63.3,56.2,30.06,ENE,71,3.8,3.8,78,0.00,,---,0.00,0.00,VWS V14.01,2013-08-30 11:42:00,
2013-08-30 04:48:00,63.3,56.2,30.06,ENE,71,3.8,3.8,78,0.00,,---,0.00,0.00,VWS V14.01,2013-08-30 11:48:00,
2013-08-30 04:55:00,63.3,56.2,30.06,ENE,71,3.8,3.8,78,0.00,,---,0.00,0.00,VWS V14.01,2013-08-30 11:55:00,
2013-08-30 05:01:00,63.1,55.9,30.06,ENE,64,5.1,11.0,77,0.00,,---,0.00,0.73,VWS V14.01,2013-08-30 12:01:00,
2013-08-30 05:06:00,62.6,55.8,30.06,ENE,77,9.2,9.2,78,0.00,,---,0.00,0.38,VWS V14.01,2013-08-30 12:06:00,
2013-08-30 05:11:00,62.6,55.8,30.06,NE,42,5.4,5.4,78,0.00,,---,0.00,4.35,VWS V14.01,2013-08-30 12:11:00,
2013-08-30 05:16:00,62.6,55.8,30.07,ENE,71,6.5,8.3,78,0.00,,---,0.00,0.00,VWS V14.01,2013-08-30 12:16:00,
2013-08-30 05:21:00,62.6,55.7,30.07,ENE,73,8.1,9.2,78,0.00,,---,0.00,2.06,VWS V14.01,2013-08-30 12:21:00,
2013-08-30 05:26:00,62.6,55.6,30.07,ENE,66,5.1,8.1,78,0.00,,---,0.00,0.00,VWS V14.01,2013-08-30 12:26:00,
2013-08-30 05:31:00,62.4,55.5,30.07,ENE,71,6.0,6.7,78,0.00,,---,0.00,0.00,VWS V14.01,2013-08-30 12:31:00,
2013-08-30 05:36:00,62.2,55.5,30.07,ENE,69,6.5,8.1,78,0.00,,---,0.00,0.00,VWS V14.01,2013-08-30 12:36:00,
2013-08-30 05:41:00,62.1,55.4,30.07,ENE,74,6.9,6.9,79,0.00,,---,0.00,0.00,VWS V14.01,2013-08-30 12:41:00,
2013-08-30 05:46:00,62.1,55.4,30.07,NE,54,1.8,2.5,79,0.00,,---,0.00,2.75,VWS V14.01,2013-08-30 12:46:00,
2013-08-30 05:51:00,61.9,55.4,30.07,NE,47,4.0,4.0,79,0.00,,---,0.00,0.00,VWS V14.01,2013-08-30 12:51:00,
2013-08-30 05:56:00,61.9,55.6,30.08,ENE,59,7.8,7.8,80,0.00,,---,0.00,0.00,VWS V14.01,2013-08-30 12:56:00,
2013-08-30 06:01:00,61.9,55.7,30.08,ENE,75,3.4,3.4,80,0.00,,---,0.00,0.76,VWS V14.01,2013-08-30 13:01:00,
2013-08-30 06:06:00,61.9,55.7,30.08,ESE,104,4.9,4.9,80,0.00,,---,0.00,0.00,VWS V14.01,2013-08-30 13:06:00,
2013-08-30 06:11:00,61.9,55.6,30.08,ENE,65,5.4,5.4,80,0.00,,---,0.00,0.00,VWS V14.01,2013-08-30 13:11:00,
2013-08-30 06:16:00,62.1,55.6,30.08,ENE,67,3.4,7.6,79,0.00,,---,0.00,0.00,VWS V14.01,2013-08-30 13:16:00,
2013-08-30 06:21:00,62.1,55.5,30.08,East,90,4.7,6.0,79,0.00,,---,0.00,1.68,VWS V14.01,2013-08-30 13:21:00,
2013-08-30 06:26:00,61.9,55.5,30.08,ENE,70,4.7,4.7,80,0.00,,---,0.00,0.00,VWS V14.01,2013-08-30 13:26:00,
2013-08-30 06:31:00,61.7,55.5,30.08,ENE,74,2.5,2.5,80,0.00,,---,0.00,7.63,VWS V14.01,2013-08-30 13:31:00,
2013-08-30 06:36:00,61.7,55.5,30.08,ENE,72,4.9,4.9,80,0.00,,---,0.00,5.57,VWS V14.01,2013-08-30 13:36:00,
2013-08-30 06:41:00,61.7,55.4,30.08,ENE,58,6.7,6.7,80,0.00,,---,0.00,12.82,VWS V14.01,2013-08-30 13:41:00,
2013-08-30 06:46:00,61.9,55.4,30.08,ENE,75,8.5,8.5,79,0.00,,---,0.00,8.32,VWS V14.01,2013-08-30 13:46:00,
2013-08-30 06:51:00,61.9,55.3,30.08,ENE,70,7.6,7.6,79,0.00,,---,0.00,9.69,VWS V14.01,2013-08-30 13:51:00,
2013-08-30 06:56:00,62.1,55.3,30.09,East,80,6.9,6.9,78,0.00,,---,0.00,7.55,VWS V14.01,2013-08-30 13:56:00,
2013-08-30 07:01:00,62.1,55.1,30.09,ENE,61,11.0,11.0,78,0.00,,---,0.00,27.47,VWS V14.01,2013-08-30 14:01:00,
2013-08-30 07:06:00,62.2,55.2,30.09,ENE,68,5.8,5.8,78,0.00,,---,0.00,13.13,VWS V14.01,2013-08-30 14:06:00,
2013-08-30 07:11:00,62.2,55.3,30.09,ENE,78,5.8,5.8,78,0.00,,---,0.00,21.60,VWS V14.01,2013-08-30 14:11:00,
2013-08-30 07:16:00,62.2,55.5,30.09,ENE,72,7.4,7.4,79,0.00,,---,0.00,14.65,VWS V14.01,2013-08-30 14:16:00,
2013-08-30 07:21:00,62.2,55.6,30.10,East,83,4.9,4.9,79,0.00,,---,0.00,65.09,VWS V14.01,2013-08-30 14:21:00,
2013-08-30 07:26:00,62.2,55.6,30.10,ENE,72,2.5,4.9,79,0.00,,---,0.00,41.74,VWS V14.01,2013-08-30 14:26:00,
2013-08-30 07:31:00,62.2,55.5,30.10,ENE,76,7.2,7.2,79,0.00,,---,0.00,32.74,VWS V14.01,2013-08-30 14:31:00,
2013-08-30 07:36:00,62.4,55.6,30.10,North,3,4.7,4.7,78,0.00,,---,0.00,65.78,VWS V14.01,2013-08-30 14:36:00,
2013-08-30 07:41:00,62.8,55.5,30.10,East,85,8.1,8.1,77,0.00,,---,0.00,69.60,VWS V14.01,2013-08-30 14:41:00,
2013-08-30 07:46:00,63.0,55.5,30.10,ENE,69,6.3,6.3,77,0.00,,---,0.00,75.02,VWS V14.01,2013-08-30 14:46:00,
2013-08-30 07:51:00,63.0,55.5,30.11,East,84,6.5,6.5,76,0.00,,---,0.00,78.83,VWS V14.01,2013-08-30 14:51:00,
2013-08-30 07:56:00,63.1,55.5,30.10,ENE,70,3.6,6.0,76,0.00,,---,0.00,102.03,VWS V14.01,2013-08-30 14:56:00,
2013-08-30 08:01:00,63.5,55.6,30.10,ENE,71,9.2,9.2,75,0.00,,---,0.00,116.00,VWS V14.01,2013-08-30 15:01:00,
2013-08-30 08:06:00,63.5,55.5,30.11,ENE,78,8.3,8.3,75,0.00,,---,0.00,119.35,VWS V14.01,2013-08-30 15:06:00,
2013-08-30 08:11:00,63.7,55.8,30.11,NE,43,3.8,3.8,76,0.00,,---,0.00,127.75,VWS V14.01,2013-08-30 15:11:00,
2013-08-30 08:16:00,63.7,55.8,30.11,ENE,76,7.2,7.2,76,0.00,,---,0.00,81.50,VWS V14.01,2013-08-30 15:16:00,
2013-08-30 08:21:00,63.7,56.1,30.11,NE,41,3.1,3.1,76,0.00,,---,0.00,139.96,VWS V14.01,2013-08-30 15:21:00,
2013-08-30 08:26:00,64.2,56.3,30.11,NE,52,4.0,4.0,76,0.00,,---,0.00,141.18,VWS V14.01,2013-08-30 15:26:00,
2013-08-30 08:31:00,64.6,56.4,30.11,NNE,23,5.6,5.6,75,0.00,,---,0.00,147.44,VWS V14.01,2013-08-30 15:31:00,
2013-08-30 08:36:00,64.6,56.2,30.11,NNE,14,4.9,4.9,74,0.00,,---,0.00,152.55,VWS V14.01,2013-08-30 15:36:00,
2013-08-30 09:31:00,64.2,56.0,30.11,ENE,57,5.6,11.2,75,0.00,,---,0.00,144.15,VWS V14.01,2013-08-30 16:31:00,
2013-08-30 09:36:00,66.4,55.2,30.13,NE,50,8.1,8.1,67,0.00,,---,0.00,133.17,VWS V14.01,2013-08-30 16:36:00,
2013-08-30 09:40:00,65.7,54.7,30.13,ENE,61,8.7,10.7,68,0.00,,---,0.00,151.94,VWS V14.01,2013-08-30 16:40:00,
2013-08-30 09:45:00,65.8,55.0,30.13,ESE,106,8.3,8.3,68,0.00,,---,0.00,167.51,VWS V14.01,2013-08-30 16:45:00,
2013-08-30 09:50:00,65.8,55.2,30.13,East,81,6.3,6.3,68,0.00,,---,0.00,135.91,VWS V14.01,2013-08-30 16:50:00,
2013-08-30 09:55:00,65.7,55.1,30.13,East,80,4.7,7.2,69,0.00,,---,0.00,138.13,VWS V14.01,2013-08-30 16:55:00,
2013-08-30 10:00:00,65.7,55.2,30.13,ENE,75,6.7,6.7,69,0.00,,---,0.00,129.50,VWS V14.01,2013-08-30 17:00:00,
2013-08-30 10:05:00,65.7,55.5,30.13,ESE,113,3.6,6.0,70,0.00,,---,0.00,178.57,VWS V14.01,2013-08-30 17:05:00,
2013-08-30 10:10:00,65.7,55.5,30.13,East,82,3.4,3.8,70,0.00,,---,0.00,282.28,VWS V14.01,2013-08-30 17:10:00,
2013-08-30 10:15:00,66.0,55.6,30.13,ENE,59,2.2,7.6,69,0.00,,---,0.00,251.30,VWS V14.01,2013-08-30 17:15:00,
2013-08-30 10:20:00,66.4,56.1,30.13,ENE,60,2.0,3.6,70,0.00,,---,0.00,287.24,VWS V14.01,2013-08-30 17:20:00,
2013-08-30 10:25:00,66.6,56.0,30.13,ENE,70,2.5,4.9,69,0.00,,---,0.00,229.47,VWS V14.01,2013-08-30 17:25:00,
2013-08-30 10:30:00,66.4,55.7,30.13,East,92,4.5,5.6,68,0.00,,---,0.00,340.13,VWS V14.01,2013-08-30 17:30:00,
2013-08-30 10:35:00,66.7,55.2,30.14,East,86,4.5,4.5,66,0.00,,---,0.00,384.84,VWS V14.01,2013-08-30 17:35:00,
2013-08-30 10:40:00,67.1,54.9,30.14,NE,49,7.6,7.6,65,0.00,,---,0.00,304.49,VWS V14.01,2013-08-30 17:40:00,
2013-08-30 10:45:00,67.8,54.3,30.14,ENE,57,9.4,9.4,62,0.00,,---,0.00,403.85,VWS V14.01,2013-08-30 17:45:00,
2013-08-30 10:50:00,67.3,54.0,30.14,ENE,76,6.0,7.4,62,0.00,,---,0.00,377.67,VWS V14.01,2013-08-30 17:50:00,
2013-08-30 10:55:00,67.3,54.1,30.14,NE,48,6.0,7.8,63,0.00,,---,0.00,410.33,VWS V14.01,2013-08-30 17:55:00,
2013-08-30 11:00:00,68.2,54.5,30.14,ENE,77,7.4,8.5,62,0.00,,---,0.00,306.32,VWS V14.01,2013-08-30 18:00:00,
2013-08-30 11:05:00,68.0,54.2,30.14,East,101,5.8,6.7,61,0.00,,---,0.00,358.82,VWS V14.01,2013-08-30 18:05:00,
2013-08-30 11:10:00,67.8,54.2,30.14,East,88,5.4,5.4,62,0.00,,---,0.00,371.41,VWS V14.01,2013-08-30 18:10:00,
2013-08-30 11:15:00,67.6,53.9,30.14,East,80,6.3,7.2,61,0.00,,---,0.00,406.21,VWS V14.01,2013-08-30 18:15:00,
2013-08-30 11:20:00,68.2,54.0,30.14,ENE,67,4.7,5.1,60,0.00,,---,0.00,406.21,VWS V14.01,2013-08-30 18:20:00,
2013-08-30 11:25:00,68.2,53.8,30.14,East,81,6.9,7.8,60,0.00,,---,0.00,442.38,VWS V14.01,2013-08-30 18:25:00,
2013-08-30 11:30:00,68.5,54.0,30.14,ESE,110,5.4,5.4,60,0.00,,---,0.00,456.12,VWS V14.01,2013-08-30 18:30:00,
2013-08-30 11:35:00,68.9,54.1,30.14,East,80,4.3,7.4,59,0.00,,---,0.00,458.72,VWS V14.01,2013-08-30 18:35:00,
2013-08-30 11:40:00,68.5,54.2,30.14,ENE,77,6.7,6.7,60,0.00,,---,0.00,447.50,VWS V14.01,2013-08-30 18:40:00,
2013-08-30 11:45:00,68.7,54.2,30.14,ENE,69,5.1,5.1,60,0.00,,---,0.00,406.21,VWS V14.01,2013-08-30 18:45:00,
2013-08-30 11:50:00,69.1,53.4,30.14,NE,50,3.8,3.8,57,0.00,,---,0.00,443.91,VWS V14.01,2013-08-30 18:50:00,
2013-08-30 11:55:00,69.1,53.0,30.14,East,95,4.9,6.7,56,0.00,,---,0.00,411.55,VWS V14.01,2013-08-30 18:55:00,
2013-08-30 12:00:00,68.9,53.7,30.13,East,99,1.8,5.6,58,0.00,,---,0.00,428.65,VWS V14.01,2013-08-30 19:00:00,
2013-08-30 12:05:00,69.4,52.9,30.14,NE,41,7.2,7.2,56,0.00,,---,0.00,445.28,VWS V14.01,2013-08-30 19:05:00,
2013-08-30 12:10:00,70.0,52.6,30.13,ENE,59,6.3,6.3,54,0.00,,---,0.00,465.51,VWS V14.01,2013-08-30 19:10:00,
2013-08-30 12:15:00,70.3,52.9,30.14,ENE,64,1.3,4.5,54,0.00,,---,0.00,457.04,VWS V14.01,2013-08-30 19:15:00,
2013-08-30 12:20:00,70.7,52.8,30.13,NW,320,2.0,2.0,53,0.00,,---,0.00,460.93,VWS V14.01,2013-08-30 19:20:00,
2013-08-30 12:25:00,71.1,52.7,30.13,East,83,4.5,4.5,52,0.00,,---,0.00,475.58,VWS V14.01,2013-08-30 19:25:00,
2013-08-30 12:30:00,71.4,51.8,30.13,NE,53,4.3,4.3,50,0.00,,---,0.00,468.48,VWS V14.01,2013-08-30 19:30:00,
2013-08-30 12:35:00,71.2,51.0,30.13,East,85,4.5,6.3,49,0.00,,---,0.00,472.15,VWS V14.01,2013-08-30 19:35:00,
2013-08-30 12:40:00,70.9,51.0,30.13,ENE,60,7.4,7.6,49,0.00,,---,0.00,472.22,VWS V14.01,2013-08-30 19:40:00,
2013-08-30 12:45:00,70.7,51.5,30.13,NNE,31,4.9,4.9,51,0.00,,---,0.00,496.64,VWS V14.01,2013-08-30 19:45:00,
2013-08-30 12:50:00,71.8,51.8,30.13,East,97,6.5,6.5,49,0.00,,---,0.00,470.93,VWS V14.01,2013-08-30 19:50:00,
2013-08-30 12:55:00,71.6,51.4,30.13,NNE,18,6.9,6.9,49,0.00,,---,0.00,428.11,VWS V14.01,2013-08-30 19:55:00,
2013-08-30 13:00:00,71.8,50.9,30.13,NE,42,4.5,8.1,48,0.00,,---,0.00,469.09,VWS V14.01,2013-08-30 20:00:00,
2013-08-30 13:05:00,72.5,50.0,30.13,NNE,27,5.6,5.6,45,0.00,,---,0.00,465.05,VWS V14.01,2013-08-30 20:05:00,
2013-08-30 13:10:00,72.3,50.5,30.13,NNE,12,4.9,4.9,46,0.00,,---,0.00,467.19,VWS V14.01,2013-08-30 20:10:00,
2013-08-30 13:15:00,73.0,50.6,30.13,NE,47,1.6,2.7,45,0.00,,---,0.00,461.31,VWS V14.01,2013-08-30 20:15:00,
2013-08-30 13:20:00,73.4,50.1,30.13,North,6,8.3,8.3,44,0.00,,---,0.00,410.87,VWS V14.01,2013-08-30 20:20:00,
2013-08-30 13:25:00,73.4,49.8,30.13,NE,52,7.8,7.8,43,0.00,,---,0.00,503.66,VWS V14.01,2013-08-30 20:25:00,
2013-08-30 13:30:00,72.9,49.4,30.13,East,89,5.8,5.8,44,0.00,,---,0.00,508.78,VWS V14.01,2013-08-30 20:30:00,
2013-08-30 13:35:00,73.0,47.6,30.13,ENE,62,6.0,8.7,40,0.00,,---,0.00,482.98,VWS V14.01,2013-08-30 20:35:00,
2013-08-30 13:40:00,72.9,47.9,30.13,East,100,5.8,5.8,41,0.00,,---,0.00,477.34,VWS V14.01,2013-08-30 20:40:00,
2013-08-30 13:45:00,72.5,48.1,30.13,NE,38,4.0,6.7,42,0.00,,---,0.00,491.07,VWS V14.01,2013-08-30 20:45:00,
2013-08-30 13:50:00,73.8,48.8,30.13,ESE,106,4.9,7.2,41,0.00,,---,0.00,489.16,VWS V14.01,2013-08-30 20:50:00,
2013-08-30 13:55:00,73.4,49.4,30.13,East,96,3.6,3.6,43,0.00,,---,0.00,494.12,VWS V14.01,2013-08-30 20:55:00,
2013-08-30 14:00:00,73.2,47.7,30.13,ESE,113,4.7,4.7,40,0.00,,---,0.00,497.41,VWS V14.01,2013-08-30 21:00:00,
2013-08-30 14:05:00,72.9,49.0,30.13,ESE,106,4.7,4.7,43,0.00,,---,0.00,475.12,VWS V14.01,2013-08-30 21:05:00,
2013-08-30 14:10:00,72.7,48.8,30.13,East,81,7.2,7.2,43,0.00,,---,0.00,417.51,VWS V14.01,2013-08-30 21:10:00,
2013-08-30 14:15:00,73.0,49.3,30.13,SE,138,3.4,3.6,43,0.00,,---,0.00,452.69,VWS V14.01,2013-08-30 21:15:00,
2013-08-30 14:20:00,72.7,49.4,30.13,SE,141,4.3,4.3,44,0.00,,---,0.00,459.63,VWS V14.01,2013-08-30 21:20:00,
2013-08-30 14:25:00,72.7,48.7,30.13,ESE,111,4.3,6.7,43,0.00,,---,0.00,430.40,VWS V14.01,2013-08-30 21:25:00,
2013-08-30 14:30:00,73.4,50.2,30.12,ESE,123,2.9,2.9,44,0.00,,---,0.00,469.40,VWS V14.01,2013-08-30 21:30:00,
2013-08-30 14:35:00,73.8,50.1,30.12,ENE,75,2.9,2.9,43,0.00,,---,0.00,465.28,VWS V14.01,2013-08-30 21:35:00,
2013-08-30 14:40:00,74.7,49.4,30.12,East,88,3.6,3.6,41,0.00,,---,0.00,453.60,VWS V14.01,2013-08-30 21:40:00,
2013-08-30 14:45:00,74.1,48.2,30.12,East,94,2.5,2.5,40,0.00,,---,0.00,461.23,VWS V14.01,2013-08-30 21:45:00,
2013-08-30 14:50:00,74.3,47.4,30.12,ENE,57,4.7,4.7,38,0.00,,---,0.00,458.41,VWS V14.01,2013-08-30 21:50:00,
2013-08-30 14:55:00,74.1,46.9,30.12,ESE,108,3.1,3.1,38,0.00,,---,0.00,451.16,VWS V14.01,2013-08-30 21:55:00,
2013-08-30 15:00:00,74.1,47.2,30.12,East,87,2.5,4.5,38,0.00,,---,0.00,456.12,VWS V14.01,2013-08-30 22:00:00,
2013-08-30 15:05:00,74.5,46.9,30.12,SSE,159,5.8,5.8,38,0.00,,---,0.00,440.02,VWS V14.01,2013-08-30 22:05:00,
2013-08-30 15:10:00,74.5,47.9,30.12,SE,146,5.6,5.6,39,0.00,,---,0.00,438.95,VWS V14.01,2013-08-30 22:10:00,
2013-08-30 15:15:00,74.8,47.5,30.12,East,80,4.7,4.7,38,0.00,,---,0.00,431.32,VWS V14.01,2013-08-30 22:15:00,
2013-08-30 15:20:00,73.8,48.0,30.12,SSE,154,4.9,4.9,40,0.00,,---,0.00,426.82,VWS V14.01,2013-08-30 22:20:00,
2013-08-30 15:25:00,74.1,48.7,30.11,ENE,76,6.5,6.5,41,0.00,,---,0.00,421.32,VWS V14.01,2013-08-30 22:25:00,
2013-08-30 15:30:00,74.1,48.5,30.12,East,96,6.9,6.9,40,0.00,,---,0.00,415.67,VWS V14.01,2013-08-30 22:30:00,
2013-08-30 15:35:00,73.6,48.4,30.12,ESE,110,3.6,5.8,41,0.00,,---,0.00,410.79,VWS V14.01,2013-08-30 22:35:00,
2013-08-30 15:40:00,74.3,49.2,30.11,East,97,3.6,3.6,41,0.00,,---,0.00,318.61,VWS V14.01,2013-08-30 22:40:00,
2013-08-30 15:45:00,75.0,48.7,30.11,East,91,3.8,3.8,39,0.00,,---,0.00,267.32,VWS V14.01,2013-08-30 22:45:00,
2013-08-30 15:50:00,73.9,47.8,30.11,ESE,108,4.0,4.0,40,0.00,,---,0.00,102.34,VWS V14.01,2013-08-30 22:50:00,
2013-08-30 15:55:00,74.3,47.9,30.11,South,172,2.2,3.6,39,0.00,,---,0.00,366.30,VWS V14.01,2013-08-30 22:55:00,
2013-08-30 16:00:00,74.8,48.9,30.11,SE,128,4.5,7.8,40,0.00,,---,0.00,366.83,VWS V14.01,2013-08-30 23:00:00,
2013-08-30 16:05:00,74.3,48.5,30.11,SE,142,6.0,6.0,40,0.00,,---,0.00,357.60,VWS V14.01,2013-08-30 23:05:00,
2013-08-30 16:10:00,74.3,48.6,30.11,East,90,4.7,4.7,40,0.00,,---,0.00,353.48,VWS V14.01,2013-08-30 23:10:00,
2013-08-30 16:15:00,75.0,48.9,30.11,SSE,155,3.8,4.5,40,0.00,,---,0.00,343.64,VWS V14.01,2013-08-30 23:15:00,
2013-08-30 16:20:00,75.2,48.6,30.11,ESE,110,4.5,4.5,39,0.00,,---,0.00,337.30,VWS V14.01,2013-08-30 23:20:00,
2013-08-30 16:25:00,74.8,48.0,30.11,SE,141,6.0,6.0,39,0.00,,---,0.00,334.10,VWS V14.01,2013-08-30 23:25:00,
2013-08-30 16:30:00,75.4,48.1,30.11,ESE,102,4.0,6.9,38,0.00,,---,0.00,321.35,VWS V14.01,2013-08-30 23:30:00,
2013-08-30 16:35:00,74.7,47.0,30.10,East,94,4.9,4.9,37,0.00,,---,0.00,307.69,VWS V14.01,2013-08-30 23:35:00,
2013-08-30 16:40:00,75.6,47.5,30.10,SSE,166,3.1,3.1,37,0.00,,---,0.00,307.39,VWS V14.01,2013-08-30 23:40:00,
2013-08-30 16:45:00,76.5,47.4,30.10,East,95,6.0,6.0,36,0.00,,---,0.00,295.41,VWS V14.01,2013-08-30 23:45:00,
2013-08-30 16:50:00,75.2,47.9,30.10,East,96,2.7,2.7,38,0.00,,---,0.00,299.68,VWS V14.01,2013-08-30 23:50:00,
2013-08-30 16:55:00,75.6,48.1,30.10,ESE,118,7.8,7.8,38,0.00,,---,0.00,282.36,VWS V14.01,2013-08-30 23:55:00,
2013-08-30 17:00:00,75.6,48.2,30.10,East,92,4.5,6.0,38,0.00,,---,0.00,272.74,VWS V14.01,2013-08-31 00:00:00,
2013-08-30 17:05:00,75.9,48.5,30.10,ESE,113,3.6,3.6,38,0.00,,---,0.00,259.46,VWS V14.01,2013-08-31 00:05:00,
2013-08-30 17:10:00,75.6,48.1,30.10,SSW,193,3.8,3.8,38,0.00,,---,0.00,260.30,VWS V14.01,2013-08-31 00:10:00,
2013-08-30 17:15:00,75.7,48.3,30.10,East,91,1.8,1.8,38,0.00,,---,0.00,254.12,VWS V14.01,2013-08-31 00:15:00,
2013-08-30 17:20:00,76.1,48.5,30.09,SE,130,8.5,8.5,38,0.00,,---,0.00,236.03,VWS V14.01,2013-08-31 00:20:00,
2013-08-30 17:25:00,75.7,48.4,30.09,East,84,6.0,6.0,38,0.00,,---,0.00,229.85,VWS V14.01,2013-08-31 00:25:00,
2013-08-30 17:30:00,75.7,48.9,30.09,ESE,111,3.1,4.7,39,0.00,,---,0.00,219.09,VWS V14.01,2013-08-31 00:30:00,
2013-08-30 17:35:00,76.1,49.0,30.09,ESE,102,4.7,6.0,38,0.00,,---,0.00,212.53,VWS V14.01,2013-08-31 00:35:00,
2013-08-30 17:40:00,75.6,48.9,30.09,East,97,4.9,6.3,39,0.00,,---,0.00,200.17,VWS V14.01,2013-08-31 00:40:00,
2013-08-30 17:45:00,75.6,49.3,30.09,ESE,118,5.6,5.6,40,0.00,,---,0.00,192.54,VWS V14.01,2013-08-31 00:45:00,
2013-08-30 17:50:00,75.7,49.0,30.09,SE,126,7.2,7.2,39,0.00,,---,0.00,185.90,VWS V14.01,2013-08-31 00:50:00,
2013-08-30 17:55:00,75.2,49.4,30.09,South,171,4.3,4.3,40,0.00,,---,0.00,173.92,VWS V14.01,2013-08-31 00:55:00,
2013-08-30 18:00:00,75.4,49.6,30.08,East,99,2.7,2.7,40,0.00,,---,0.00,172.77,VWS V14.01,2013-08-31 01:00:00,
2013-08-30 18:05:00,75.9,49.5,30.08,ESE,121,3.4,4.5,40,0.00,,---,0.00,144.08,VWS V14.01,2013-08-31 01:05:00,
2013-08-30 18:10:00,75.4,49.2,30.08,West,268,3.6,3.6,40,0.00,,---,0.00,82.34,VWS V14.01,2013-08-31 01:10:00,
2013-08-30 18:15:00,73.9,50.5,30.08,South,188,6.3,6.3,44,0.00,,---,0.00,123.09,VWS V14.01,2013-08-31 01:15:00,
2013-08-30 18:20:00,72.9,51.4,30.08,South,186,5.4,5.4,47,0.00,,---,0.00,141.94,VWS V14.01,2013-08-31 01:20:00,
2013-08-30 18:25:00,72.5,52.2,30.08,South,180,7.4,7.4,49,0.00,,---,0.00,135.84,VWS V14.01,2013-08-31 01:25:00,
2013-08-30 18:30:00,72.9,52.4,30.08,South,182,7.2,7.2,49,0.00,,---,0.00,127.06,VWS V14.01,2013-08-31 01:30:00,
2013-08-30 18:35:00,72.1,52.4,30.08,South,187,5.6,5.6,50,0.00,,---,0.00,119.05,VWS V14.01,2013-08-31 01:35:00,
2013-08-30 18:40:00,72.0,52.4,30.08,South,190,9.0,9.0,50,0.00,,---,0.00,104.55,VWS V14.01,2013-08-31 01:40:00,
2013-08-30 18:45:00,71.6,52.1,30.08,SSW,193,5.8,5.8,50,0.00,,---,0.00,93.10,VWS V14.01,2013-08-31 01:45:00,
2013-08-30 18:50:00,71.1,51.0,30.08,South,184,8.3,10.5,49,0.00,,---,0.00,77.08,VWS V14.01,2013-08-31 01:50:00,
2013-08-30 18:55:00,70.7,50.6,30.08,SSW,192,9.4,9.4,49,0.00,,---,0.00,65.71,VWS V14.01,2013-08-31 01:55:00,
2013-08-30 19:00:00,70.3,50.6,30.08,SSW,194,4.3,10.1,50,0.00,,---,0.00,62.96,VWS V14.01,2013-08-31 02:00:00,
2013-08-30 19:05:00,70.3,50.6,30.08,SW,226,5.4,5.4,50,0.00,,---,0.00,61.97,VWS V14.01,2013-08-31 02:05:00,
2013-08-30 19:10:00,69.8,50.5,30.08,SSW,211,12.5,12.5,50,0.00,,---,0.00,53.50,VWS V14.01,2013-08-31 02:10:00,
2013-08-30 19:15:00,69.6,50.5,30.08,SSW,200,10.1,10.1,51,0.00,,---,0.00,48.69,VWS V14.01,2013-08-31 02:15:00,
2013-08-30 19:20:00,69.1,50.7,30.08,SSW,205,8.7,8.7,52,0.00,,---,0.00,16.94,VWS V14.01,2013-08-31 02:20:00,
2013-08-30 19:25:00,68.7,50.7,30.07,SW,228,11.4,11.4,52,0.00,,---,0.00,5.04,VWS V14.01,2013-08-31 02:25:00,
2013-08-30 19:30:00,68.4,50.8,30.07,South,190,5.1,5.1,53,0.00,,---,0.00,4.73,VWS V14.01,2013-08-31 02:30:00,
2013-08-30 19:35:00,67.8,50.6,30.08,SSW,204,4.9,6.3,54,0.00,,---,0.00,1.14,VWS V14.01,2013-08-31 02:35:00,
2013-08-30 19:40:00,67.5,50.7,30.08,SSW,211,9.6,9.6,55,0.00,,---,0.00,0.00,VWS V14.01,2013-08-31 02:40:00,
2013-08-30 19:45:00,66.9,50.6,30.08,SW,215,7.2,12.5,56,0.00,,---,0.00,4.96,VWS V14.01,2013-08-31 02:45:00,
2013-08-30 19:50:00,66.6,50.4,30.08,SSW,208,11.9,11.9,56,0.00,,---,0.00,0.00,VWS V14.01,2013-08-31 02:50:00,
2013-08-30 19:55:00,66.2,50.6,30.08,SSW,198,8.1,8.1,57,0.00,,---,0.00,5.65,VWS V14.01,2013-08-31 02:55:00,
2013-08-30 20:00:00,66.0,50.7,30.08,South,189,6.9,8.3,58,0.00,,---,0.00,0.00,VWS V14.01,2013-08-31 03:00:00,
2013-08-30 20:05:00,65.8,50.8,30.08,SSW,210,12.1,12.1,58,0.00,,---,0.00,2.75,VWS V14.01,2013-08-31 03:05:00,
2013-08-30 20:10:00,65.8,50.8,30.08,SSW,212,11.0,11.0,58,0.00,,---,0.00,6.94,VWS V14.01,2013-08-31 03:10:00,
2013-08-30 20:15:00,65.7,50.7,30.08,South,184,3.4,3.4,58,0.00,,---,0.00,0.00,VWS V14.01,2013-08-31 03:15:00,
2013-08-30 20:20:00,65.7,50.8,30.08,SSW,207,6.9,6.9,59,0.00,,---,0.00,0.00,VWS V14.01,2013-08-31 03:20:00,
2013-08-30 20:25:00,65.7,50.9,30.08,SW,218,6.9,6.9,59,0.00,,---,0.00,0.00,VWS V14.01,2013-08-31 03:25:00,
2013-08-30 20:30:00,65.5,50.8,30.08,WSW,244,6.5,9.6,59,0.00,,---,0.00,0.00,VWS V14.01,2013-08-31 03:30:00,
2013-08-30 20:35:00,65.5,51.0,30.08,WSW,240,9.8,9.8,60,0.00,,---,0.00,2.98,VWS V14.01,2013-08-31 03:35:00,
2013-08-30 20:38:00,65.5,51.2,30.08,SW,217,6.7,6.7,60,0.00,,---,0.00,1.60,VWS V14.01,2013-08-31 03:38:00,
2013-08-30 20:40:00,65.5,51.2,30.08,SW,217,6.7,6.7,60,0.00,,---,0.00,1.60,VWS V14.01,2013-08-31 03:40:00,
2013-08-30 20:45:00,65.5,51.2,30.08,SW,217,6.7,6.7,60,0.00,,---,0.00,1.60,VWS V14.01,2013-08-31 03:45:00,
2013-08-30 20:51:00,65.5,51.2,30.08,SW,217,6.7,6.7,60,0.00,,---,0.00,1.60,VWS V14.01,2013-08-31 03:51:00,
2013-08-30 20:56:00,65.5,51.2,30.08,SW,217,6.7,6.7,60,0.00,,---,0.00,1.60,VWS V14.01,2013-08-31 03:56:00,
2013-08-30 21:03:00,65.5,51.2,30.08,SW,217,6.7,6.7,60,0.00,,---,0.00,1.60,VWS V14.01,2013-08-31 04:03:00,
2013-08-30 21:08:00,65.5,51.2,30.08,SW,217,6.7,6.7,60,0.00,,---,0.00,1.60,VWS V14.01,2013-08-31 04:08:00,
2013-08-30 21:13:00,65.5,51.2,30.08,SW,217,6.7,6.7,60,0.00,,---,0.00,1.60,VWS V14.01,2013-08-31 04:13:00,
2013-08-30 21:21:00,65.5,51.2,30.08,SW,217,6.7,6.7,60,0.00,,---,0.00,1.60,VWS V14.01,2013-08-31 04:21:00,